Regional Weather Roundup
Issued by NWS San Angelo, TX

Home | Current Version | Previous Version | Text Only | Print | Product List | Glossary On
Versions: 1 2 3 4 5 6 7 8 9 10 11 12 13 14 15 16 17 18 19 20 21 22 23 24 25 26 27 28 29 30 31 32 33 34 35 36 37 38 39 40 41 42 43 44 45 46 47 48 49 50
000
ASUS44 KSJT 221910
RWRSJT
WEST CENTRAL TEXAS REGIONAL WEATHER ROUNDUP
NATIONAL WEATHER SERVICE SAN ANGELO TX
200 PM CDT MON MAY 22 2017

NOTE: "FAIR" INDICATES FEW OR NO CLOUDS BELOW 12,000 FEET WITH NO
SIGNIFICANT WEATHER AND/OR OBSTRUCTIONS TO VISIBILITY.

TXZ049-054-064>066-071>073-076>078-098-099-113-114-127-128-139-140-
154-155-168>170-222000
...LOCATIONS ACROSS WEST CENTRAL TEXAS...

CITY           SKY/WX    TMP DP  RH WIND       PRES   REMARKS
SAN ANGELO     CLOUDY    70  62  76 E9        30.01F
ABILENE        MOSUNNY   73  62  68 SE7       30.01F
DYESS AFB      NOT AVBL
JUNCTION       CLOUDY    70  65  84 E9        30.00F
SWEETWATER     MOSUNNY   72  63  72 E12       30.04S
BROWNWOOD      CLOUDY    72  63  73 E6        30.02F HAZE
COLEMAN        MOCLDY    69  60  74 SE6       30.03F
SONORA         CLOUDY    68  64  88 VRB6      30.06F
OZONA            N/A     68  61  77 SE7       30.04F
BRADY          NOT AVBL
$$

TEXAS PANHANDLE/OKLAHOMA PANHANDLE

CITY           SKY/WX    TMP DP  RH WIND       PRES   REMARKS
AMARILLO       CLOUDY    67  52  58 SW8       30.07F
BORGER         CLOUDY    60  55  83 N8        30.08S
CANADIAN       DRIZZLE   61  58  90 N5        30.05F
DALHART        PTSUNNY   65  52  62 N17       30.10F
DUMAS          MOCLDY    58  53  81 CALM      30.09F
GUYMON         NOT AVBL
HEREFORD       CLOUDY    68  54  61 NW8       30.08F
PAMPA          DRIZZLE   63  56  76 W6        30.07S
PERRYTON       CLOUDY    61  56  84 W8        30.06F
$$

SOUTHERN PANHANDLE/SOUTH PLAINS/ROLLING PLAINS

CITY           SKY/WX    TMP DP  RH WIND       PRES   REMARKS
LUBBOCK        PTSUNNY   74  55  51 S10       30.03F
SNYDER         CLOUDY    70  60  70 SE6       30.04S
CHILDRESS      PTSUNNY   72  54  53 E9        30.03F
SEMINOLE       MOCLDY    66  56  68 CALM      30.06F
$$

PERMIAN BASIN

CITY           SKY/WX    TMP DP  RH WIND       PRES   REMARKS
MIDLAND        CLOUDY    70  58  65 SW3       30.03F
ODESSA         CLOUDY    69  58  67 CALM      30.04F
WINK           PTSUNNY   74  58  57 CALM      30.00F
$$

FAR WEST/SOUTHWEST MOUNTAINS/TRANS PECOS

CITY           SKY/WX    TMP DP  RH WIND       PRES   REMARKS
ALPINE         CLEAR     81  51  35 S6        30.10F
DRYDEN           N/A     73  64  73 E10       29.98F
EL PASO        MOSUNNY   86  46  24 NE6       30.00F
FORT STOCKTON  SUNNY     82  57  42 NW12      29.99F
GUADALUPE PASS SUNNY     82  48  30 W16G25    30.11F
MARFA          SUNNY     78  54  43 SW10      30.09F
PECOS          CLEAR     76  57  53 NE5       29.99F
$$

DALLAS/FORT WORTH METROPLEX

CITY           SKY/WX    TMP DP  RH WIND       PRES   REMARKS
DFW AIRPORT    PTSUNNY   77  59  53 E10       29.98F
FTW MEACHAM    MOSUNNY   78  60  53 VRB5      29.99F
DAL-EXECUTIVE  MOSUNNY   77  61  57 SE8       29.99F
GRAND PRAIRIE  PTSUNNY   75  59  57 E7        30.04F
ADDISON        PTSUNNY   77  59  53 E6        30.01F
MESQUITE       MOCLDY    75  59  57 E10       30.01F
LANCASTER      MOCLDY    77  59  55 E6        30.01F
$$

NORTH CENTRAL TEXAS

CITY           SKY/WX    TMP DP  RH WIND       PRES   REMARKS
SHRMAN/DENISON CLOUDY    71  59  66 CALM      30.03F
GAINESVILLE    CLOUDY    74  58  56 SE7       30.03F
BRIDGEPORT     CLOUDY    74  58  58 SE3       30.03F
DENTON         CLOUDY    74  60  61 SE5       30.00F
WAXAHACHIE     CLOUDY    75  63  67 E6        30.01F
GRANBURY       CLOUDY    76  61  59 E5        30.01F
$$

WESTERN NORTH TEXAS

CITY           SKY/WX    TMP DP  RH WIND       PRES   REMARKS
WICHITA FALLS  PTSUNNY   74  59  59 VRB6      30.02F
VERNON         MOCLDY    73  54  51 SE8       30.03F
BRECKENRIDGE   CLOUDY    75  59  55 S5        30.01F
COMANCHE       CLOUDY    70  63  77 E8        30.03F
$$

CENTRAL AND SOUTH CENTRAL TEXAS

CITY           SKY/WX    TMP DP  RH WIND       PRES   REMARKS
AUSTIN/BERGSTM CLOUDY    73  67  81 NE10      29.97F
WACO           CLOUDY    72  64  76 E7        30.01F
HILLSBORO      MOCLDY    75  64  68 E9        30.00F
TEMPLE         CLOUDY    71  65  81 E9        30.01F
KILLEEN-GRAY   CLOUDY    70  63  79 E7        30.00F
FORT HOOD      NOT AVBL
GEORGETOWN     NOT AVBL
LAGO VISTA     CLOUDY    72  66  82 NE13      30.00F
SAN MARCOS     CLOUDY    73  66  78 NE12      29.98F
NEW BRAUNFELS  CLOUDY    74  66  76 NE13      29.95F
RANDOLPH AFB   CLOUDY    74  69  84 N10       29.95F
SAN ANTONIO    CLOUDY    74  66  76 NE9       29.96F
STINSON        CLOUDY    78  66  66 NE14      29.92F
PLEASANTON     NOT AVBL
LA GRANGE      CLOUDY    75  68  79 N8        29.94F
GIDDINGS       CLOUDY    71  65  82 NE8       29.98F
$$

EAST TEXAS

CITY           SKY/WX    TMP DP  RH WIND       PRES   REMARKS
PARIS          SUNNY     75  55  50 E10G18    30.03F
CLARKSVILLE    NOT AVBL
TYLER          CLOUDY    66  62  87 E12       30.01F
LONGVIEW       LGT RAIN  64  63  96 NE8       30.01F FOG
PALESTINE      DRIZZLE   65  65  97 NE7       30.02F
NACOGDOCHES    CLOUDY    66  63  88 NE6       29.98S
$$

TEXAS HILL COUNTRY AND EDWARDS PLATEAU

CITY           SKY/WX    TMP DP  RH WIND       PRES   REMARKS
LLANO          MOCLDY    75  66  73 E9        30.02F
HORSESHOE BAY  NOT AVBL
KERRVILLE      CLOUDY    69  65  88 NE6       30.01F
FREDERICKSBRG  CLOUDY    69  63  81 E6        30.01F
ROCKSPRINGS    CLOUDY    70  64  83 E8        30.03F
HONDO          CLOUDY    78  68  71 E6        29.95F
UVALDE         CLOUDY    76  68  75 NE9       29.95F
DEL RIO        CLOUDY    73  67  81 W3        29.95F
$$

SOUTHEAST TEXAS

CITY           SKY/WX    TMP DP  RH WIND       PRES   REMARKS
COLLEGE STN    CLOUDY    70  66  87 NE13      29.98F
CALDWELL       NOT AVBL
CROCKETT       LGT RAIN  66  64  94 NE9       30.02S
BRENHAM        CLOUDY    72  69  91 NE7       29.97F
HUNTSVILLE     CLOUDY    67  64  90 VRB5      29.98S
CONROE         RAIN      66  65  96 VRB5      29.97S FOG
HOUSTON BUSH   LGT RAIN  68  65  90 NE10      29.95F
HOUSTON HOBBY  LGT RAIN  78  72  81 S8        29.91F
PERLAND        CLOUDY    81  72  74 S10       29.93F
WHARTON        CLOUDY    77  71  81 CALM      29.93F
$$

THE UPPER TEXAS COAST

CITY           SKY/WX    TMP DP  RH WIND       PRES   REMARKS
ORANGE         LGT RAIN  74  73  97 SE7       29.94F
PORT ARTHUR    CLOUDY    78  74  87 S15G21    29.91F
GALVESTON      CLOUDY    81  74  79 SE13      29.93F
ANGLETON       CLOUDY    82  72  71 S7        29.91F
BAY CITY       MOCLDY    83  72  70 SE8       29.91F
$$

TEXAS COASTAL BEND, RIO GRANDE PLAINS DEEP SOUTH TEXAS

CITY           SKY/WX    TMP DP  RH WIND       PRES   REMARKS
VICTORIA       PTSUNNY   84  73  69 N5        29.90F
BEEVILLE       CLOUDY    85  73  65 E5        29.91F
ROCKPORT       PTSUNNY   80  72  76 SE7       29.89F
PORT ARANSAS   CLOUDY    78  74  88 S5        29.89F
PORT LAVACA    MOCLDY    82  75  78 CALM      29.90F
CORPUS CHRISTI PTSUNNY   81  75  82 E9        29.88F
KINGSVILLE NAS LGT RAIN  80  79  96 N5        29.89F
COTULLA        SUNNY     82  68  62 E9        29.92F
LAREDO         CLOUDY    78  70  76 E6        29.92F
BROWNSVILLE    MOSUNNY   96  73  47 S16G24    29.84F
PORT ISABEL    PTSUNNY   93  73  52 S14       29.83F
HEBBRONVILLE   CLOUDY    82  66  59 E7        29.91F
MCALLEN        CLOUDY    83  75  77 N14       29.86F
WESLACO        CLOUDY    87  75  67 N10       29.83F
FALFURRIAS     CLOUDY    79  74  83 NE8       29.89S
EDINBURG       PTCLDY    89  73  58 N10       29.86F
$$




USA.gov is the U.S. government's official web portal to all federal, state and local government web resources and services.